Theta_e
315 324 326 323 321 322 322 323 325 327 332 337 342 341 340 346 354 367 354 353 361 363 356 355 348 339 338 342 343 341 335 327 327 331 332 331 337 341 342 344 343 339 327 326 327 330 333 335 333
320 324 322 323 322 322 324 324 324 326 333 333 331 330 334 350 353 354 353 353 356 364 359 358 346 338 337 342 343 342 338 327 328 331 331 333 339 340 341 342 335 326 325 326 327 331 333 331 327
317 322 324 323 323 324 324 326 326 326 328 328 329 329 333 346 350 348 348 352 356 363 359 358 345 338 337 345 343 342 340 327 328 331 333 334 336 337 338 332 327 325 325 327 330 334 331 326 331
320 323 324 325 323 324 325 325 325 325 325 325 326 325 331 343 344 338 344 347 347 361 359 356 347 337 339 346 345 344 340 329 329 332 334 336 336 336 335 333 325 325 325 330 333 331 325 332 341
318 323 322 322 322 322 323 325 324 324 324 324 324 323 326 333 330 333 340 347 348 359 358 353 347 336 338 343 345 345 341 331 331 333 334 336 335 336 336 330 326 325 330 333 330 326 333 340 342
319 321 322 322 322 323 325 325 324 323 323 324 323 323 324 331 331 333 343 345 350 358 357 352 346 334 337 344 345 345 342 333 333 333 334 335 335 332 330 327 327 328 333 331 326 330 339 341 342
321 321 320 320 321 322 323 324 323 323 323 323 324 323 325 326 326 325 336 345 349 358 358 355 347 335 340 340 342 345 342 335 334 336 335 336 334 327 327 327 328 332 332 327 329 337 340 343 342
320 321 321 322 322 322 323 324 323 323 323 324 323 324 325 325 324 323 325 346 348 357 359 354 350 350 350 351 346 346 342 336 334 336 337 337 331 329 327 327 330 333 328 326 335 339 341 342 342
318 317 318 320 321 321 322 321 322 321 320 320 321 321 323 322 321 322 324 337 346 353 358 354 348 347 347 350 352 345 343 339 338 338 337 334 332 331 329 329 336 331 325 332 338 341 343 343 342
318 318 319 321 320 320 320 320 320 319 319 319 320 320 320 320 320 322 323 325 343 352 358 355 349 345 343 346 350 350 350 342 339 338 337 333 341 334 335 339 340 328 326 336 341 341 343 343 346
320 321 321 320 320 320 320 320 320 320 320 320 320 321 321 321 321 321 321 323 324 349 356 356 352 347 341 341 347 349 349 348 344 344 340 336 342 340 339 343 341 327 330 340 340 341 343 349 347
322 322 321 321 321 320 320 320 320 320 320 320 320 321 321 320 320 320 320 322 323 337 353 356 355 349 344 344 343 343 345 345 345 344 344 337 342 341 340 344 335 329 335 340 346 350 347 344 343
320 320 321 321 320 319 319 319 319 318 319 319 320 320 320 321 322 320 321 323 324 350 348 356 355 352 347 346 343 339 341 342 343 344 345 338 345 342 338 342 337 336 339 342 344 348 347 343 343
321 321 320 319 319 319 319 318 318 319 319 319 320 319 320 321 322 322 322 324 328 333 350 354 355 354 352 350 343 339 340 339 340 343 346 339 343 343 337 341 337 337 339 341 345 348 346 346 347
321 320 321 321 321 320 319 319 319 320 320 319 320 320 320 323 321 323 322 324 324 329 332 352 355 354 352 349 345 340 341 339 339 342 344 339 342 343 340 339 336 341 342 343 349 347 343 348 347
323 323 325 322 321 321 320 322 321 321 320 320 320 320 320 321 323 321 321 322 323 326 330 337 354 355 353 351 350 345 344 343 341 343 344 342 340 343 341 339 339 343 344 344 346 343 347 347 347
323 325 324 323 322 321 322 322 322 322 322 322 321 321 321 321 324 322 322 321 322 324 324 331 351 354 354 350 351 348 346 346 345 344 345 342 340 343 337 341 342 345 344 346 344 342 347 347 346
321 320 321 321 321 321 321 322 322 322 322 323 323 322 323 323 323 323 323 322 321 324 324 324 331 352 355 354 350 350 347 348 345 344 343 341 339 341 336 343 344 345 347 346 344 345 347 346 345
320 321 322 322 322 322 322 322 322 322 322 322 322 323 324 324 324 322 323 321 322 322 326 330 328 342 356 356 352 350 349 348 348 346 343 341 339 339 336 347 346 346 346 345 345 349 348 348 346
320 321 322 322 322 322 322 322 322 324 324 324 324 324 324 324 324 325 323 324 323 323 327 326 332 336 351 356 354 350 347 349 348 345 343 341 338 339 341 347 345 345 349 348 348 347 348 348 342
322 322 322 323 322 321 321 323 324 323 323 323 322 322 322 322 323 324 324 323 324 326 324 329 329 337 346 355 355 351 350 349 349 345 344 340 337 340 343 345 348 346 350 348 349 348 349 345 339
323 320 321 322 322 323 322 325 324 325 323 323 322 321 320 321 321 322 326 327 324 322 327 327 331 336 346 352 354 353 350 349 348 346 344 342 339 344 345 342 350 347 349 350 348 347 349 345 338
320 321 322 322 324 324 324 324 323 324 324 321 320 319 320 320 319 320 322 323 323 322 323 328 331 334 348 351 353 354 350 349 349 347 343 342 342 347 348 344 350 349 348 349 346 348 346 342 338
321 321 321 322 324 326 325 328 326 324 324 323 320 319 319 319 319 320 321 322 323 322 321 331 334 335 345 350 352 352 351 349 349 347 344 343 342 350 349 351 350 350 346 348 347 346 345 342 336
320 321 325 324 325 325 324 326 325 324 323 321 320 319 318 319 318 319 320 323 321 323 324 324 335 341 344 350 352 351 352 349 348 346 344 346 349 351 350 351 351 349 346 348 346 343 342 340 337
320 322 324 329 328 324 322 323 322 325 323 322 320 319 319 319 319 320 321 322 321 323 322 324 325 342 345 351 350 349 350 349 346 344 342 344 348 350 351 350 349 349 347 345 342 340 339 336 332
321 321 322 324 323 326 323 322 321 325 324 322 322 321 320 322 322 322 320 321 324 322 323 324 326 332 345 349 350 347 349 348 345 343 339 345 347 350 349 349 347 347 345 341 338 337 334 331 328
322 321 323 323 328 327 323 322 323 324 322 321 323 323 322 322 322 322 321 324 323 322 322 324 325 327 341 346 349 348 347 347 345 342 340 342 347 350 349 347 346 344 340 337 335 332 330 329 329
322 323 324 324 327 328 328 323 323 323 322 322 322 321 321 321 322 322 323 321 319 322 322 323 324 329 340 342 346 347 346 345 345 342 340 334 332 343 348 346 344 339 335 334 332 330 329 328 325
321 321 321 334 327 325 327 328 322 320 320 320 321 322 321 322 320 320 321 321 323 324 322 323 326 328 335 341 345 345 345 344 343 342 343 342 345 347 345 342 339 335 333 331 329 329 327 325 322
Wind_Speed
7 13 12 15 6 7 14 17 18 21 2 12 12 9 14 11 12 3 8 3 17 23 23 21 19 20 18 19 20 19 18 18 19 20 19 17 18 16 12 13 13 11 10 10 9 9 8 6 5
12 17 11 6 8 11 13 19 17 17 16 9 6 6 7 17 22 13 14 8 14 23 18 17 19 18 18 19 21 19 19 20 20 20 20 18 16 14 12 12 11 11 10 9 8 7 6 5 5
10 13 8 5 11 14 15 12 13 9 14 4 3 3 8 7 16 8 9 7 10 21 19 17 20 18 17 19 21 21 19 21 22 21 19 17 15 14 12 11 10 10 10 8 7 6 5 4 5
9 6 6 9 17 17 21 15 8 10 9 3 4 7 5 10 8 9 6 5 4 23 23 22 20 18 16 17 21 20 20 21 23 21 19 17 14 12 11 11 10 9 9 8 6 5 5 4 5
11 6 10 13 16 19 21 19 10 6 9 7 7 4 8 14 11 8 4 3 5 24 24 20 20 19 17 16 20 22 20 21 21 22 20 16 14 12 11 10 10 10 8 7 5 5 5 3 5
7 8 11 13 17 20 17 2 3 4 11 8 2 6 9 8 11 8 9 6 4 25 24 22 20 22 19 17 20 21 21 20 22 21 20 18 15 13 11 11 9 9 8 6 5 5 4 3 6
10 10 15 16 17 19 8 6 2 6 7 13 14 8 2 13 13 8 5 9 3 28 24 20 20 22 19 18 19 23 22 20 21 20 20 18 15 14 12 11 10 9 7 5 5 5 3 3 4
8 10 17 16 16 18 5 13 9 5 9 16 14 3 5 10 10 10 9 1 10 17 22 20 21 19 18 17 20 22 23 23 22 20 19 18 16 14 13 12 11 9 7 6 5 4 3 3 3
12 9 12 17 13 18 6 5 2 5 5 14 14 16 18 23 16 11 11 5 10 16 21 22 22 21 22 17 17 20 24 24 21 20 19 18 16 15 13 12 10 9 8 6 5 5 5 4 4
6 9 16 11 10 14 17 12 8 9 10 11 15 14 16 20 17 9 10 13 11 9 22 25 29 26 24 22 20 19 21 24 25 23 22 19 16 13 13 13 13 10 8 7 6 6 7 6 6
10 12 15 18 10 12 15 15 14 14 16 15 14 12 11 13 15 11 12 14 21 15 15 20 31 32 28 26 26 23 21 21 22 22 23 22 19 13 17 15 14 11 10 10 8 8 8 7 3
8 14 15 14 10 13 14 15 17 17 17 17 17 15 12 10 12 13 15 17 22 19 15 17 14 29 27 25 26 26 25 24 24 26 23 24 19 21 19 16 15 13 15 12 14 11 8 5 3
14 15 14 11 13 13 16 17 18 20 18 17 17 15 12 12 12 15 12 16 17 2 5 15 18 25 28 24 28 27 27 29 27 27 27 25 19 21 21 20 19 14 19 11 13 10 7 3 3
15 16 16 17 17 17 15 15 15 18 16 15 11 12 13 12 13 12 6 13 15 4 10 10 14 23 22 19 28 28 29 30 29 28 27 27 23 21 22 16 16 13 14 10 6 11 9 5 7
14 17 17 20 16 11 9 16 18 22 15 5 9 13 12 11 12 11 10 9 10 11 13 15 10 17 26 25 28 29 28 27 28 29 26 26 25 20 19 15 20 12 9 7 6 6 5 5 8
19 15 14 1 8 12 15 16 14 12 2 7 12 12 11 11 10 14 14 13 11 9 13 11 13 17 28 31 23 26 26 24 28 27 29 29 26 21 21 18 19 15 12 11 10 8 9 11 8
15 10 16 17 17 17 13 17 17 17 15 13 12 14 16 15 13 15 16 16 16 14 15 15 17 20 25 38 26 26 26 26 26 29 30 31 28 20 27 19 19 14 14 12 11 9 10 11 5
15 18 17 19 18 19 20 22 19 19 20 19 18 16 15 16 12 15 14 15 19 18 23 24 20 25 25 33 38 30 30 30 29 27 30 33 31 23 28 17 20 18 14 10 9 9 9 6 5
14 16 19 19 19 20 19 18 19 19 19 20 18 15 13 14 12 12 17 20 18 19 19 20 25 22 27 27 34 33 30 32 31 32 32 33 34 25 28 16 19 19 15 14 14 11 10 7 9
16 19 19 19 17 18 20 22 22 22 20 18 16 14 14 13 11 10 15 16 15 19 19 22 23 28 27 28 32 35 36 34 33 31 34 37 36 30 29 20 18 18 15 16 15 12 10 8 8
16 14 16 19 21 19 22 24 23 16 4 11 11 10 9 10 10 9 10 13 13 20 26 25 28 30 29 31 28 32 36 27 26 33 34 39 37 32 29 24 22 19 17 19 17 14 11 10 8
12 16 19 20 18 16 19 17 21 22 15 17 13 9 8 11 10 10 7 8 17 23 25 29 29 30 30 30 28 30 30 24 26 29 33 33 35 32 29 29 19 22 19 20 18 16 12 6 11
16 15 17 23 21 21 22 12 19 6 10 3 4 3 1 5 9 9 9 11 17 23 23 31 30 30 30 29 29 29 32 28 30 37 35 30 34 32 29 27 20 22 19 16 19 16 14 10 8
16 17 21 23 20 15 16 2 15 10 15 14 6 5 6 9 8 10 10 12 19 20 22 28 30 30 26 27 29 31 34 34 30 23 29 32 31 31 29 25 23 22 18 19 21 16 13 8 11
16 15 11 8 10 7 8 9 12 18 19 5 4 6 8 13 9 10 12 4 23 37 23 17 29 28 28 26 28 32 32 32 29 25 31 25 24 27 29 27 24 21 18 16 17 16 13 11 8
15 9 6 7 13 19 22 14 9 10 13 11 7 9 5 8 11 12 11 7 21 28 20 15 20 25 26 23 26 30 32 26 29 22 28 27 25 26 28 30 26 22 17 17 16 16 15 12 10
5 11 7 10 16 16 17 19 11 19 13 15 11 10 8 11 13 13 22 27 19 7 20 19 22 19 26 25 24 29 30 23 26 24 25 28 29 27 32 28 25 21 20 20 19 17 15 15 13
17 16 11 7 6 14 13 22 17 6 17 12 12 10 14 8 10 7 6 21 23 26 10 18 20 20 28 26 23 25 28 27 30 23 43 28 24 26 31 31 29 23 22 22 22 20 17 17 15
14 9 13 5 8 12 16 10 14 23 18 8 10 10 11 13 10 8 7 5 28 33 18 21 22 25 23 28 25 23 28 28 27 29 32 28 30 27 32 35 28 28 24 23 21 21 20 19 16
21 18 13 4 12 11 13 23 20 8 15 13 13 14 14 13 16 14 15 14 17 22 17 21 19 25 23 33 30 27 28 31 27 32 35 29 30 34 30 30 32 27 26 26 24 23 21 19 18
Wind_Direction
278 291 268 269 244 232 254 249 245 277 31 59 44 3 357 334 79 137 75 20 124 127 158 166 167 165 166 171 175 167 160 168 166 155 152 153 150 150 146 142 138 134 130 125 124 118 103 83 56
286 295 248 278 242 246 250 230 250 247 90 63 61 6 304 54 91 114 52 40 127 130 153 164 174 172 171 176 179 176 164 168 172 162 160 160 159 159 158 152 144 138 132 129 126 117 102 81 57
277 276 262 223 232 249 267 316 358 73 84 56 335 129 320 47 54 60 44 75 106 133 144 175 177 177 177 182 183 180 172 172 172 168 165 165 166 165 164 158 149 141 136 133 124 109 88 72 57
248 218 254 260 263 240 239 280 359 336 73 47 319 296 98 82 86 69 64 355 246 150 151 170 181 179 181 180 181 183 176 176 173 173 169 170 169 171 168 164 153 149 144 137 127 112 92 77 47
240 268 247 257 253 262 282 291 69 327 312 316 152 282 333 110 104 55 75 62 277 142 155 162 174 182 182 183 184 183 179 180 179 177 172 173 176 175 174 169 161 155 148 142 131 112 95 67 33
236 228 261 257 253 246 247 221 92 222 286 294 234 181 263 151 108 55 39 69 340 148 141 157 169 183 183 182 185 186 182 182 186 181 175 177 178 177 178 172 172 163 154 153 144 126 108 65 55
245 258 256 269 283 294 321 70 16 10 286 282 349 247 58 53 55 15 354 130 216 139 135 147 160 179 184 186 186 189 184 183 189 186 181 179 178 176 181 183 176 174 163 168 157 134 120 83 87
267 279 273 275 276 272 6 55 33 327 282 321 347 289 236 42 22 343 294 55 153 148 133 142 155 167 166 178 184 185 187 185 188 190 187 182 180 179 185 188 183 183 178 178 172 159 169 165 162
274 263 261 262 319 331 58 42 71 6 309 302 305 300 294 316 322 303 289 212 273 172 152 152 161 173 167 176 181 185 190 185 187 192 192 185 183 183 190 188 202 194 190 182 186 201 214 212 206
236 271 266 16 342 322 331 347 330 296 285 271 274 274 265 279 281 291 292 289 195 157 166 164 166 174 177 173 185 176 182 187 187 192 193 188 183 187 193 203 204 208 198 185 199 215 216 223 233
241 269 304 314 340 323 316 309 298 287 270 260 274 280 296 326 317 302 288 288 287 160 188 182 174 170 178 175 180 178 184 184 186 191 198 186 191 187 194 199 205 213 204 193 207 209 203 252 273
278 284 290 305 311 305 293 294 284 281 281 287 284 287 283 282 278 284 275 269 254 224 164 187 172 169 182 170 177 179 183 187 190 190 201 197 202 182 193 201 199 198 208 213 230 225 160 92 13
285 279 283 311 292 282 277 273 279 277 275 274 272 265 266 271 268 272 275 286 295 116 264 144 196 176 185 176 175 183 187 186 188 192 199 198 200 193 200 209 197 192 210 202 217 168 131 107 185
290 297 302 290 281 275 281 280 279 277 271 258 253 261 266 258 265 260 238 288 317 325 212 234 173 203 199 182 177 186 194 189 188 188 196 197 199 204 198 219 205 198 217 196 209 128 121 79 110
311 293 285 265 247 255 291 280 269 271 253 281 298 278 255 255 265 282 274 234 262 278 273 207 205 206 212 207 190 189 199 197 191 187 192 195 199 208 205 203 204 212 206 215 141 110 104 148 130
260 251 274 13 155 233 219 279 292 285 331 258 254 251 254 266 274 275 276 259 248 230 239 259 216 217 214 213 195 194 197 197 194 189 190 194 201 204 196 204 205 196 197 209 206 154 155 139 128
292 247 307 316 330 315 282 272 272 270 278 252 240 244 260 262 251 244 249 251 247 241 246 246 222 216 216 211 208 204 197 200 195 192 185 187 200 203 198 203 204 199 185 202 153 159 142 127 131
330 313 312 305 303 297 289 281 286 284 274 263 271 269 259 257 249 258 248 255 235 237 221 230 246 219 215 215 214 211 203 199 198 191 189 189 194 200 199 205 195 180 183 165 163 178 146 156 182
304 287 291 290 283 279 283 291 291 289 279 269 269 267 262 265 263 258 252 242 244 230 228 214 230 238 211 211 210 217 210 199 198 192 182 190 194 193 197 202 183 188 186 195 192 157 153 180 189
283 283 283 298 317 321 307 292 282 268 257 259 269 272 269 266 266 251 260 232 228 227 228 222 233 236 224 216 214 208 218 209 195 190 184 186 188 189 195 192 191 196 201 188 171 162 176 197 166
287 300 302 319 312 296 283 274 275 276 263 209 236 261 258 262 282 289 285 284 251 231 224 214 228 238 234 218 222 208 219 217 203 185 185 183 183 185 189 189 186 193 198 183 177 182 188 182 164
309 324 317 303 300 296 304 295 289 272 255 204 228 205 257 294 253 247 248 272 252 251 243 217 224 236 234 224 221 215 208 212 211 204 178 181 178 180 183 193 193 196 192 190 184 180 198 202 164
301 300 286 283 278 281 279 269 278 73 292 55 54 37 300 275 297 285 291 298 287 257 246 210 218 234 229 227 220 222 212 217 199 214 173 177 179 178 183 187 185 191 199 181 179 183 186 205 181
275 293 310 288 274 252 266 232 292 343 354 299 286 273 255 256 282 296 279 294 322 277 246 202 209 224 226 226 222 222 218 211 221 216 171 175 181 173 176 179 186 184 184 178 174 182 183 186 213
314 319 316 314 311 289 359 272 277 287 292 308 301 314 297 305 253 262 281 17 8 318 299 241 206 213 214 223 223 226 228 215 213 206 170 161 177 169 172 173 181 178 183 176 179 174 181 192 180
301 293 303 316 309 305 305 289 305 28 20 345 4 320 275 295 294 294 309 175 158 243 306 322 281 210 205 213 224 228 235 211 199 184 172 168 178 170 173 172 177 174 178 184 177 170 175 180 179
300 295 308 281 286 287 282 284 347 55 23 299 1 346 326 2 9 30 352 293 338 286 326 317 312 301 199 209 218 229 234 203 175 185 162 186 175 172 174 166 164 171 175 176 171 170 169 163 160
241 257 289 271 288 297 304 307 295 29 346 333 358 349 349 359 350 51 306 328 328 316 252 285 291 299 223 219 212 218 224 212 190 193 168 178 156 164 161 163 170 171 175 179 163 166 164 159 165
293 247 248 250 257 287 299 275 319 329 324 336 318 330 316 322 288 297 283 78 323 285 305 304 293 298 225 216 210 208 217 210 194 182 193 199 191 187 176 173 172 169 175 182 168 163 160 158 164
265 269 276 273 272 266 273 279 286 333 314 287 280 277 314 300 309 310 319 312 325 299 281 274 285 287 255 216 196 199 210 203 200 180 201 190 177 184 163 159 168 164 177 177 164 157 160 161 154